DECAYED

SZ-19 DEB, 63801 (Decayed)

Orbit data source: Space-Track

SZ-19 DEB, 63801 was space debris in LEO originally from a launch on Tue, 29 Oct 2024 UTC launched from the Jiuquan Satellite Launch Center, China (JSC). Debris objects in space refer to the collection of defunct objects orbiting the Earth. Examples of debris include non-operational satellites, rocket bodies, and fragments generated from explosions, collisions, or faulty payload assembly.

Not visible in the next 10 days
Identifier
63801, 2024-194E
Orbit
Decayed
Country
Flag of CNCN / PRC
Related business
Manufacturer
CAST
Mission
Decayed Civil Spaceship
Bus & Motor
SHENZHOU OM, Unknown motor
Mass
~1,842 kg wet, ~1,500 kg dry
Launch date (UTC)
2024-10-29 (2 years ago)
Launch vehicle
Unknown
Launch site
Jiuquan Satellite Launch Center, China (JSC)
Object type
Payload
Rocket body
Debris
Shape & HBR
Cyl + 2 Pan, 2.1 m
Radar Cross Section
9.277 m², Large (>1 m²)

Expand to show TLE details & history
Last TLE update: 2 months ago

TLE from 2 months ago
0 SZ-19 DEB
1 63801U 24194E   26071.58446799  .03800286  81201-5  37885-3 0  9994
2 63801  41.4522 140.9527 0003059  46.7637 313.3484 16.37093782 49696
Epoch: 2026-03-12T14:01Z
TLE epoch observation values (Epoch: 2026-03-12T14:01:38.034Z)
Latitude
0.00001°
Longitude
120.31198°
Altitude
171.754 km
Speed
7.806 km/s
True Right ascension
09h 23m 48s
True Declination
0° 00' 00"
Sunlit
Object was in full shadow at epoch
Visualization orbit readout
Latitude
Unknown
Longitude
Unknown
Altitude
Unknown
Speed
Unknown
Apparent Right ascension
Unknown
Apparent Declination
Unknown
Sunlit
N/A
Visualization observer readout
Local Sidereal Time
10:11:33
Azimuth
Unknown
Elevation
Unknown
Doppler factor
Unknown
Orbital elements
Apogee altitude
177.858 km
Perigee altitude
173.848 km
Semi-major axis
6,553.99 km
Eccentricity
0.00031
Inclination
41.4522°
RAAN
140.9527°
Arg. of periapsis
46.7637°
True anomaly
313.3229°
Mean anomaly
313.3484°
Eccentric anomaly
313.33565°
Mean motion
4.09058 °/min
Orbital period
88.01 mins
BSTAR
0.00037885
Loading maneuver chart data...
Computing Atmospheric mass density...
Loading historical data...
Loading historical data...
Loading historical data...
Loading historical data...
Loading historical data...
Loading historical data...
Loading historical data...

Documentation

Showing up to 5 results
|